| time (UTC) | temp F | wind direction | speed MPH | gust MPH | rain 1hr in | rain 24hr in | rain mn in | humidity % | barometer mb |
| 20260504030925 | 60 | 29 | 0.0 | 2.0 | 0.00 | 0.00 | 0.00 | 30 | 1010.3 |
| 20260504030422 | 61 | 13 | 0.0 | 0.0 | 0.00 | 0.00 | 0.00 | 28 | 1010.3 |
| 20260504025917 | 61 | 25 | 0.0 | 0.0 | 0.00 | 0.00 | 0.00 | 28 | 1010.0 |
| 20260504025415 | 61 | 326 | 1.0 | 4.0 | 0.00 | 0.00 | 0.00 | 27 | 1010.3 |
| 20260504024912 | 61 | 338 | 0.0 | 1.0 | 0.00 | 0.00 | 0.00 | 27 | 1010.2 |
| 20260504024409 | 61 | 347 | 0.0 | 1.0 | 0.00 | 0.00 | 0.00 | 26 | 1010.2 |
| 20260504023906 | 62 | 352 | 0.0 | 1.0 | 0.00 | 0.00 | 0.00 | 26 | 1010.2 |
| 20260504023402 | 63 | 325 | 0.0 | 0.0 | 0.00 | 0.00 | 0.00 | 26 | 1010.3 |
| 20260504022857 | 64 | 345 | 0.0 | 0.0 | 0.00 | 0.00 | 0.00 | 25 | 1010.2 |
| 20260504022354 | 65 | 306 | 0.0 | 2.0 | 0.00 | 0.00 | 0.00 | 24 | 1010.3 |
| 20260504021851 | 65 | 311 | 0.0 | 2.0 | 0.00 | 0.00 | 0.00 | 25 | 1010.2 |
| 20260504021348 | 66 | 358 | 0.0 | 0.0 | 0.00 | 0.00 | 0.00 | 25 | 1010.0 |
| 20260504020845 | 67 | 325 | 0.0 | 0.0 | 0.00 | 0.00 | 0.00 | 24 | 1010.0 |
| 20260504020342 | 68 | 356 | 0.0 | 1.0 | 0.00 | 0.00 | 0.00 | 23 | 1010.2 |
| 20260504015838 | 69 | 311 | 0.0 | 2.0 | 0.00 | 0.00 | 0.00 | 23 | 1010.2 |
| 20260504015334 | 69 | 3 | 1.0 | 3.0 | 0.00 | 0.00 | 0.00 | 22 | 1010.2 |
| 20260504014831 | 71 | 38 | 1.0 | 4.0 | 0.00 | 0.00 | 0.00 | 22 | 1010.2 |
| 20260504014326 | 72 | 304 | 0.0 | 6.0 | 0.00 | 0.00 | 0.00 | 22 | 1010.0 |
| 20260504013825 | 72 | 336 | 1.0 | 6.0 | 0.00 | 0.00 | 0.00 | 21 | 1010.2 |
| 20260504013322 | 73 | 9 | 6.0 | 8.0 | 0.00 | 0.00 | 0.00 | 21 | 1010.2 |
| 20260504012819 | 73 | 317 | 2.0 | 9.0 | 0.00 | 0.00 | 0.00 | 21 | 1010.0 |
| 20260504012316 | 73 | 336 | 3.0 | 6.0 | 0.00 | 0.00 | 0.00 | 21 | 1010.0 |
| 20260504011814 | 73 | 0 | 2.0 | 4.0 | 0.00 | 0.00 | 0.00 | 20 | 1009.8 |
| 20260504011310 | 74 | 353 | 1.0 | 4.0 | 0.00 | 0.00 | 0.00 | 20 | 1010.0 |
| 20260504010806 | 75 | 338 | 2.0 | 6.0 | 0.00 | 0.00 | 0.00 | 20 | 1010.0 |
| 20260504010301 | 75 | 323 | 3.0 | 9.0 | 0.00 | 0.00 | 0.00 | 19 | 1010.2 |
| 20260504005759 | 75 | 351 | 3.0 | 7.0 | 0.00 | 0.00 | 0.00 | 20 | 1010.2 |
| 20260504005255 | 75 | 19 | 3.0 | 6.0 | 0.00 | 0.00 | 0.00 | 19 | 1010.4 |
| 20260504004753 | 76 | 319 | 2.0 | 4.0 | 0.00 | 0.00 | 0.00 | 19 | 1010.3 |
| 20260504004250 | 76 | 345 | 0.0 | 9.0 | 0.00 | 0.00 | 0.00 | 19 | 1010.5 |
| 20260504003747 | 75 | 326 | 11.0 | 14.0 | 0.00 | 0.00 | 0.00 | 19 | 1010.4 |
| 20260504003244 | 76 | 332 | 5.0 | 9.0 | 0.00 | 0.00 | 0.00 | 18 | 1010.4 |
| 20260504002740 | 77 | 347 | 4.0 | 7.0 | 0.00 | 0.00 | 0.00 | 18 | 1010.4 |
| 20260504002237 | 76 | 344 | 6.0 | 11.0 | 0.00 | 0.00 | 0.00 | 18 | 1010.6 |
| 20260504001735 | 77 | 355 | 8.0 | 15.0 | 0.00 | 0.00 | 0.00 | 18 | 1010.7 |
| 20260504001232 | 77 | 318 | 4.0 | 7.0 | 0.00 | 0.00 | 0.00 | 18 | 1010.4 |
| 20260504000728 | 77 | 357 | 4.0 | 8.0 | 0.00 | 0.00 | 0.00 | 19 | 1010.5 |
| 20260504000226 | 77 | 304 | 5.0 | 14.0 | 0.00 | 0.00 | 0.00 | 18 | 1010.5 |
| 20260503235724 | 77 | 300 | 4.0 | 10.0 | 0.00 | 0.00 | 0.00 | 17 | 1010.5 |
| 20260503235220 | 77 | 342 | 9.0 | 11.0 | 0.00 | 0.00 | 0.00 | 17 | 1010.6 |
| 20260503234718 | 77 | 308 | 8.0 | 11.0 | 0.00 | 0.00 | 0.00 | 17 | 1010.6 |
| 20260503234216 | 77 | 285 | 3.0 | 7.0 | 0.00 | 0.00 | 0.00 | 18 | 1010.6 |
| 20260503233713 | 77 | 12 | 7.0 | 11.0 | 0.00 | 0.00 | 0.00 | 18 | 1010.8 |
| 20260503233208 | 77 | 324 | 5.0 | 10.0 | 0.00 | 0.00 | 0.00 | 18 | 1010.8 |
| 20260503232705 | 77 | 337 | 8.0 | 10.0 | 0.00 | 0.00 | 0.00 | 17 | 1010.8 |
| 20260503232203 | 77 | 280 | 7.0 | 9.0 | 0.00 | 0.00 | 0.00 | 17 | 1010.7 |
| 20260503231701 | 77 | 325 | 6.0 | 9.0 | 0.00 | 0.00 | 0.00 | 17 | 1010.8 |
| 20260503231157 | 77 | 324 | 8.0 | 11.0 | 0.00 | 0.00 | 0.00 | 18 | 1010.8 |
| 20260503230654 | 77 | 294 | 3.0 | 9.0 | 0.00 | 0.00 | 0.00 | 18 | 1010.9 |
| 20260503230151 | 77 | 13 | 12.0 | 14.0 | 0.00 | 0.00 | 0.00 | 17 | 1011.0 |
| 20260503225648 | 77 | 338 | 6.0 | 10.0 | 0.00 | 0.00 | 0.00 | 18 | 1011.0 |
| 20260503225148 | 77 | 280 | 2.0 | 9.0 | 0.00 | 0.00 | 0.00 | 18 | 1011.1 |
| 20260503224646 | 77 | 317 | 5.0 | 7.0 | 0.00 | 0.00 | 0.00 | 18 | 1011.1 |
| 20260503224143 | 77 | 337 | 4.0 | 9.0 | 0.00 | 0.00 | 0.00 | 18 | 1011.4 |
| 20260503223641 | 77 | 303 | 3.0 | 10.0 | 0.00 | 0.00 | 0.00 | 19 | 1011.4 |
| 20260503223137 | 77 | 346 | 9.0 | 15.0 | 0.00 | 0.00 | 0.00 | 18 | 1011.2 |
| 20260503222635 | 77 | 306 | 6.0 | 8.0 | 0.00 | 0.00 | 0.00 | 17 | 1011.5 |
| 20260503222132 | 76 | 356 | 6.0 | 9.0 | 0.00 | 0.00 | 0.00 | 18 | 1011.6 |
| 20260503221631 | 77 | 358 | 3.0 | 10.0 | 0.00 | 0.00 | 0.00 | 18 | 1011.6 |
| 20260503221128 | 76 | 286 | 4.0 | 13.0 | 0.00 | 0.00 | 0.00 | 19 | 1011.6 |
| 20260503220624 | 76 | 274 | 7.0 | 15.0 | 0.00 | 0.00 | 0.00 | 17 | 1011.7 |
| 20260503220121 | 76 | 268 | 6.0 | 10.0 | 0.00 | 0.00 | 0.00 | 18 | 1011.8 |
| 20260503215618 | 76 | 294 | 10.0 | 16.0 | 0.00 | 0.00 | 0.00 | 17 | 1011.6 |
| 20260503215114 | 77 | 312 | 7.0 | 14.0 | 0.00 | 0.00 | 0.00 | 18 | 1011.9 |
| 20260503214614 | 76 | 254 | 7.0 | 10.0 | 0.00 | 0.00 | 0.00 | 18 | 1011.8 |
| 20260503214109 | 77 | 302 | 5.0 | 9.0 | 0.00 | 0.00 | 0.00 | 19 | 1011.8 |
| 20260503213608 | 76 | 308 | 4.0 | 11.0 | 0.00 | 0.00 | 0.00 | 19 | 1012.2 |
| 20260503213103 | 75 | 270 | 11.0 | 14.0 | 0.00 | 0.00 | 0.00 | 19 | 1012.0 |
| 20260503212601 | 77 | 318 | 7.0 | 14.0 | 0.00 | 0.00 | 0.00 | 19 | 1012.2 |
| 20260503212059 | 76 | 274 | 7.0 | 10.0 | 0.00 | 0.00 | 0.00 | 19 | 1012.2 |
| 20260503211556 | 76 | 306 | 6.0 | 13.0 | 0.00 | 0.00 | 0.00 | 19 | 1012.3 |
| 20260503211051 | 76 | 297 | 4.0 | 6.0 | 0.00 | 0.00 | 0.00 | 18 | 1012.2 |
| 20260503210548 | 75 | 272 | 6.0 | 8.0 | 0.00 | 0.00 | 0.00 | 19 | 1012.3 |
| 20260503210043 | 76 | 299 | 4.0 | 10.0 | 0.00 | 0.00 | 0.00 | 18 | 1012.6 |
| 20260503205541 | 76 | 320 | 8.0 | 15.0 | 0.00 | 0.00 | 0.00 | 19 | 1012.4 |
| 20260503205037 | 76 | 301 | 6.0 | 11.0 | 0.00 | 0.00 | 0.00 | 19 | 1012.8 |
| 20260503204534 | 76 | 301 | 4.0 | 8.0 | 0.00 | 0.00 | 0.00 | 19 | 1012.8 |
| 20260503204031 | 76 | 325 | 4.0 | 13.0 | 0.00 | 0.00 | 0.00 | 17 | 1012.9 |
| 20260503203528 | 75 | 326 | 5.0 | 9.0 | 0.00 | 0.00 | 0.00 | 20 | 1012.9 |
| 20260503203025 | 76 | 328 | 9.0 | 11.0 | 0.00 | 0.00 | 0.00 | 16 | 1013.0 |
| 20260503202523 | 76 | 348 | 11.0 | 14.0 | 0.00 | 0.00 | 0.00 | 16 | 1013.0 |
| 20260503202021 | 76 | 328 | 7.0 | 10.0 | 0.00 | 0.00 | 0.00 | 18 | 1013.1 |
| 20260503201519 | 75 | 255 | 9.0 | 17.0 | 0.00 | 0.00 | 0.00 | 18 | 1013.1 |
| 20260503201016 | 75 | 282 | 7.0 | 14.0 | 0.00 | 0.00 | 0.00 | 20 | 1013.1 |
| 20260503200512 | 73 | 299 | 9.0 | 14.0 | 0.00 | 0.00 | 0.00 | 21 | 1013.1 |
| 20260503200009 | 73 | 266 | 8.0 | 13.0 | 0.00 | 0.00 | 0.00 | 21 | 1013.2 |
| 20260503195506 | 76 | 270 | 5.0 | 13.0 | 0.00 | 0.00 | 0.00 | 22 | 1013.2 |
| 20260503195002 | 73 | 283 | 6.0 | 13.0 | 0.00 | 0.00 | 0.00 | 21 | 1013.4 |
| 20260503194500 | 73 | 313 | 13.0 | 16.0 | 0.00 | 0.00 | 0.00 | 21 | 1013.4 |
| 20260503193955 | 73 | 282 | 4.0 | 9.0 | 0.00 | 0.00 | 0.00 | 22 | 1013.5 |
| 20260503193451 | 74 | 278 | 4.0 | 14.0 | 0.00 | 0.00 | 0.00 | 20 | 1013.8 |
| 20260503192946 | 73 | 276 | 6.0 | 11.0 | 0.00 | 0.00 | 0.00 | 22 | 1013.8 |
| 20260503192443 | 74 | 252 | 4.0 | 13.0 | 0.00 | 0.00 | 0.00 | 22 | 1014.0 |
| 20260503191938 | 73 | 305 | 9.0 | 14.0 | 0.00 | 0.00 | 0.00 | 21 | 1014.0 |
| 20260503191436 | 73 | 290 | 7.0 | 11.0 | 0.00 | 0.00 | 0.00 | 22 | 1013.9 |
| 20260503190932 | 74 | 279 | 10.0 | 15.0 | 0.00 | 0.00 | 0.00 | 20 | 1014.0 |
| 20260503190430 | 74 | 295 | 9.0 | 15.0 | 0.00 | 0.00 | 0.00 | 21 | 1014.1 |
| 20260503185927 | 73 | 285 | 7.0 | 11.0 | 0.00 | 0.00 | 0.00 | 21 | 1014.1 |
| 20260503185423 | 72 | 272 | 5.0 | 11.0 | 0.00 | 0.00 | 0.00 | 22 | 1014.2 |
| 20260503184922 | 73 | 308 | 8.0 | 13.0 | 0.00 | 0.00 | 0.00 | 21 | 1014.3 |
| 20260503184419 | 73 | 256 | 8.0 | 14.0 | 0.00 | 0.00 | 0.00 | 22 | 1014.5 |
| 20260503183916 | 72 | 297 | 6.0 | 10.0 | 0.00 | 0.00 | 0.00 | 22 | 1014.4 |
| 20260503183412 | 73 | 261 | 8.0 | 15.0 | 0.00 | 0.00 | 0.00 | 23 | 1014.4 |
| 20260503182909 | 72 | 302 | 7.0 | 13.0 | 0.00 | 0.00 | 0.00 | 23 | 1014.6 |
| 20260503182409 | 72 | 285 | 6.0 | 14.0 | 0.00 | 0.00 | 0.00 | 24 | 1014.7 |
| 20260503181905 | 72 | 281 | 6.0 | 11.0 | 0.00 | 0.00 | 0.00 | 24 | 1014.9 |
| 20260503181402 | 72 | 276 | 5.0 | 8.0 | 0.00 | 0.00 | 0.00 | 25 | 1015.0 |
| 20260503180858 | 72 | 290 | 7.0 | 14.0 | 0.00 | 0.00 | 0.00 | 25 | 1015.2 |
| 20260503180356 | 71 | 282 | 6.0 | 8.0 | 0.00 | 0.00 | 0.00 | 26 | 1015.2 |
| 20260503175853 | 72 | 344 | 6.0 | 9.0 | 0.00 | 0.00 | 0.00 | 25 | 1015.2 |
| 20260503175351 | 70 | 295 | 3.0 | 7.0 | 0.00 | 0.00 | 0.00 | 28 | 1015.3 |
| 20260503174846 | 71 | 299 | 7.0 | 11.0 | 0.00 | 0.00 | 0.00 | 28 | 1015.2 |
| 20260503174345 | 71 | 292 | 4.0 | 11.0 | 0.00 | 0.00 | 0.00 | 27 | 1015.4 |
| 20260503173839 | 69 | 280 | 3.0 | 10.0 | 0.00 | 0.00 | 0.00 | 29 | 1015.3 |
| 20260503173336 | 68 | 262 | 6.0 | 8.0 | 0.00 | 0.00 | 0.00 | 29 | 1015.4 |
| 20260503172833 | 68 | 243 | 4.0 | 8.0 | 0.00 | 0.00 | 0.00 | 29 | 1015.6 |
| 20260503172331 | 68 | 283 | 4.0 | 10.0 | 0.00 | 0.00 | 0.00 | 31 | 1015.5 |
| 20260503171826 | 67 | 291 | 3.0 | 9.0 | 0.00 | 0.00 | 0.00 | 31 | 1015.4 |
| 20260503171323 | 68 | 263 | 6.0 | 11.0 | 0.00 | 0.00 | 0.00 | 31 | 1015.6 |
| 20260503170821 | 68 | 276 | 5.0 | 13.0 | 0.00 | 0.00 | 0.00 | 33 | 1015.5 |
| 20260503170317 | 67 | 272 | 9.0 | 11.0 | 0.00 | 0.00 | 0.00 | 33 | 1015.6 |
| 20260503150709 | 52 | 286 | 6.0 | 7.0 | 0.00 | 0.00 | 0.00 | 67 | 1016.5 |
| 20260503150205 | 52 | 286 | 5.0 | 8.0 | 0.00 | 0.00 | 0.00 | 68 | 1016.6 |
| 20260503140130 | 45 | 238 | 4.0 | 6.0 | 0.00 | 0.00 | 0.00 | 78 | 1017.1 |
| 20260503131059 | 42 | 273 | 3.0 | 4.0 | 0.00 | 0.00 | 0.00 | 85 | 1016.8 |
| 20260503130556 | 42 | 280 | 3.0 | 4.0 | 0.00 | 0.00 | 0.00 | 86 | 1016.7 |
| 20260503110447 | 39 | 289 | 0.0 | 1.0 | 0.00 | 0.00 | 0.00 | 90 | 1017.4 |
| 20260503090338 | 42 | 305 | 0.0 | 0.0 | 0.00 | 0.00 | 0.00 | 81 | 1018.5 |
| 20260503081305 | 45 | 314 | 0.0 | 0.0 | 0.00 | 0.00 | 0.00 | 78 | 1018.1 |
| 20260503080801 | 44 | 337 | 0.0 | 0.0 | 0.00 | 0.00 | 0.00 | 81 | 1018.2 |
| 20260503080259 | 43 | 303 | 0.0 | 0.0 | 0.00 | 0.00 | 0.00 | 82 | 1018.2 |
| 20260503072735 | 47 | 285 | 0.0 | 0.0 | 0.00 | 0.00 | 0.00 | 74 | 1018.5 |
| 20260503072232 | 47 | 311 | 0.0 | 0.0 | 0.00 | 0.00 | 0.00 | 74 | 1018.4 |
| 20260503071728 | 47 | 313 | 0.0 | 0.0 | 0.00 | 0.00 | 0.00 | 74 | 1018.5 |
| 20260503071226 | 48 | 325 | 0.0 | 0.0 | 0.00 | 0.00 | 0.00 | 74 | 1018.6 |
| 20260503070722 | 47 | 284 | 0.0 | 0.0 | 0.00 | 0.00 | 0.00 | 75 | 1018.7 |
| 20260503070220 | 46 | 331 | 0.0 | 0.0 | 0.00 | 0.00 | 0.00 | 74 | 1018.5 |
| 20260503060150 | 51 | 307 | 0.0 | 0.0 | 0.00 | 0.00 | 0.00 | 66 | 1018.6 |
| 20260503054637 | 51 | 260 | 0.0 | 0.0 | 0.00 | 0.00 | 0.00 | 64 | 1018.9 |
| 20260503054135 | 52 | 228 | 2.0 | 4.0 | 0.00 | 0.00 | 0.00 | 64 | 1018.8 |
| 20260503053633 | 52 | 258 | 4.0 | 6.0 | 0.00 | 0.00 | 0.00 | 62 | 1018.9 |
| 20260503053131 | 53 | 208 | 0.0 | 0.0 | 0.00 | 0.00 | 0.00 | 61 | 1018.9 |
| 20260503052627 | 54 | 213 | 1.0 | 3.0 | 0.00 | 0.00 | 0.00 | 58 | 1018.9 |
| 20260503052124 | 54 | 220 | 5.0 | 7.0 | 0.00 | 0.00 | 0.00 | 57 | 1019.0 |
| 20260503051619 | 54 | 215 | 1.0 | 2.0 | 0.00 | 0.00 | 0.00 | 58 | 1018.9 |
| 20260503051117 | 55 | 210 | 0.0 | 3.0 | 0.00 | 0.00 | 0.00 | 57 | 1019.0 |
| 20260503050613 | 55 | 210 | 6.0 | 7.0 | 0.00 | 0.00 | 0.00 | 58 | 1019.2 |
| 20260503050110 | 54 | 226 | 3.0 | 4.0 | 0.00 | 0.00 | 0.00 | 58 | 1018.9 |
| 20260503045608 | 55 | 238 | 0.0 | 2.0 | 0.00 | 0.00 | 0.00 | 59 | 1019.0 |
| 20260503045104 | 55 | 230 | 2.0 | 7.0 | 0.00 | 0.00 | 0.00 | 58 | 1019.1 |
| 20260503044601 | 55 | 216 | 4.0 | 4.0 | 0.00 | 0.00 | 0.00 | 59 | 1019.0 |
| 20260503044059 | 56 | 231 | 4.0 | 6.0 | 0.00 | 0.00 | 0.00 | 59 | 1019.0 |
| 20260503043555 | 57 | 202 | 6.0 | 8.0 | 0.00 | 0.00 | 0.00 | 54 | 1019.4 |
| 20260503043052 | 57 | 217 | 5.0 | 8.0 | 0.00 | 0.00 | 0.00 | 53 | 1019.2 |
| 20260503042549 | 58 | 266 | 2.0 | 6.0 | 0.00 | 0.00 | 0.00 | 54 | 1019.3 |
| 20260503042045 | 58 | 288 | 1.0 | 7.0 | 0.00 | 0.00 | 0.00 | 52 | 1019.7 |
| 20260503041542 | 59 | 316 | 5.0 | 8.0 | 0.00 | 0.00 | 0.00 | 49 | 1019.7 |
| 20260503041039 | 59 | 285 | 7.0 | 10.0 | 0.00 | 0.00 | 0.00 | 49 | 1019.8 |
| 20260503040537 | 59 | 343 | 4.0 | 7.0 | 0.00 | 0.00 | 0.00 | 47 | 1019.9 |
| 20260503040034 | 57 | 330 | 8.0 | 14.0 | 0.00 | 0.00 | 0.00 | 46 | 1019.4 |
| 20260503035530 | 57 | 326 | 0.0 | 0.0 | 0.00 | 0.00 | 0.00 | 43 | 1019.1 |
| 20260503035028 | 58 | 332 | 0.0 | 0.0 | 0.00 | 0.00 | 0.00 | 42 | 1018.9 |
| 20260503034525 | 59 | 39 | 0.0 | 0.0 | 0.00 | 0.00 | 0.00 | 40 | 1018.8 |
| 20260503034022 | 59 | 91 | 0.0 | 0.0 | 0.00 | 0.00 | 0.00 | 40 | 1018.9 |
| 20260503033519 | 59 | 83 | 0.0 | 0.0 | 0.00 | 0.00 | 0.00 | 41 | 1018.8 |
| 20260503033018 | 59 | 82 | 0.0 | 0.0 | 0.00 | 0.00 | 0.00 | 41 | 1018.7 |
| 20260503032515 | 59 | 74 | 0.0 | 1.0 | 0.00 | 0.00 | 0.00 | 41 | 1018.6 |
| 20260503032013 | 59 | 83 | 0.0 | 1.0 | 0.00 | 0.00 | 0.00 | 41 | 1018.5 |
| 20260503031511 | 60 | 68 | 3.0 | 3.0 | 0.00 | 0.00 | 0.00 | 39 | 1018.7 |